Weather reports worldwide

Advertisment
Loch Glascarnoch, United Kingdom (3031): temperature & dewpoint: 12.07.2019 06:00:00 - 18.07.2019 06:00:00 (BST)Loch Glascarnoch, United Kingdom (3031): temperature -20cm & temperature -100cm: 12.07.2019 06:00:00 - 18.07.2019 06:00:00 (BST)Loch Glascarnoch, United Kingdom (3031): wind speed: 12.07.2019 06:00:00 - 18.07.2019 06:00:00 (BST)Loch Glascarnoch, United Kingdom (3031): wind direction: 12.07.2019 06:00:00 - 18.07.2019 06:00:00 (BST)Loch Glascarnoch, United Kingdom (3031): reduced air pressure: 12.07.2019 06:00:00 - 18.07.2019 06:00:00 (BST)Loch Glascarnoch, United Kingdom (3031): visibility: 12.07.2019 06:00:00 - 18.07.2019 06:00:00 (BST)Loch Glascarnoch, United Kingdom (3031): sunshine duration: 12.07.2019 06:00:00 - 18.07.2019 06:00:00 (BST)Loch Glascarnoch, United Kingdom (3031): precipitation: 12.07.2019 06:00:00 - 18.07.2019 06:00:00 (BST)
Date & Time tt [°C] td [°C] tt -20cm [°C] tt -100cm [°C] ff [km/h] ff [kn] dd ppp [hPa] vv [km] sd [min] rr [mm]
18.07.2019 06:00:00 - - - - - - - - - - -
18.07.2019 05:00:00 11,0 9,7 - - 5 3 SSW 1001,8 45 0 0,0
18.07.2019 04:00:00 11,0 9,7 - - 4 2 SSE 1002,2 45 0 0,2
18.07.2019 03:00:00 11,6 10,1 - - 15 8 SW 1002,6 45 0 0,0
18.07.2019 02:00:00 9,5 7,8 - - 2 1 NE 1003,0 45 0 0,0
18.07.2019 01:00:00 10,9 8,6 - - 9 5 WNW 1002,9 45 - 0,0
18.07.2019 00:00:00 11,7 9,0 - - 11 6 SW 1003,3 30 0 0,0
17.07.2019 23:00:00 11,9 8,8 - - 5 3 ESE 1003,4 20 0 0,0
17.07.2019 22:00:00 12,1 9,4 - - 8 4 W 1003,6 50 6 0,0
17.07.2019 21:00:00 14,1 10,9 - - 16 9 WSW 1003,0 45 6 0,2
17.07.2019 20:00:00 14,6 11,9 - - 21 11 WSW 1002,5 50 0 0,0
17.07.2019 19:00:00 14,9 12,7 - - 18 10 SSW 1002,6 6 0 0,4
17.07.2019 18:00:00 15,5 13,1 - - 11 6 S 1002,7 14 0 0,4
17.07.2019 17:00:00 15,8 12,2 - - 11 6 S 1003,1 9 0 0,2
17.07.2019 16:00:00 15,6 12,8 - - 15 8 SSE 1003,5 6 0 0,0
17.07.2019 15:00:00 15,1 12,1 - - 21 11 SE 1004,0 45 0 0,2
17.07.2019 14:00:00 14,2 12,0 - - 16 9 SE 1004,7 13 0 0,6
17.07.2019 13:00:00 14,3 12,2 - - 15 8 SE 1005,2 22 0 0,8
17.07.2019 12:00:00 14,1 11,0 - - 18 10 SE 1005,7 45 0 0,4
17.07.2019 11:00:00 14,8 11,2 - - 15 8 ESE 1005,8 35 0 0,4
17.07.2019 10:00:00 14,9 11,4 14,7 12,7 18 10 ESE 1006,4 40 0 0,0
17.07.2019 09:00:00 14,6 12,2 - - 18 10 ESE 1007,0 30 0 0,0
17.07.2019 08:00:00 14,1 12,1 - - 18 10 ESE 1007,7 35 0 0,0
17.07.2019 07:00:00 13,6 12,0 - - 15 8 ESE 1008,5 27 0 0,0
17.07.2019 06:00:00 12,9 11,7 - - 4 2 SE 1009,5 30 0 0,0
17.07.2019 05:00:00 12,9 11,8 - - 8 4 E 1010,2 29 0 0,0
17.07.2019 04:00:00 12,5 11,5 - - 8 4 E 1011,0 24 0 0,0
17.07.2019 03:00:00 12,9 11,3 - - 5 3 S 1012,0 30 0 0,2
17.07.2019 02:00:00 13,3 11,1 - - 5 3 NE 1012,7 19 0 0,0
17.07.2019 01:00:00 13,5 10,5 - - 8 4 NW 1013,1 40 - 0,0
17.07.2019 00:00:00 13,6 10,1 - - 5 3 ESE 1013,5 40 0 0,0
16.07.2019 23:00:00 13,5 10,0 - - 4 2 SW 1014,1 45 0 0,0
16.07.2019 22:00:00 14,1 9,5 - - 2 1 WSW 1014,3 40 0 0,0
16.07.2019 21:00:00 15,5 8,5 - - 13 7 WSW 1014,4 50 18 0,0
16.07.2019 20:00:00 16,9 9,1 - - 15 8 WSW 1014,5 35 60 0,0
16.07.2019 19:00:00 18,1 9,2 - - 18 10 WSW 1014,4 45 60 0,0
16.07.2019 18:00:00 18,1 9,3 - - 24 13 WSW 1014,8 40 60 0,0
16.07.2019 17:00:00 19,0 9,8 - - 24 13 WSW 1014,8 40 60 0,0
16.07.2019 16:00:00 19,3 11,0 - - 21 11 WSW 1015,1 35 42 0,0
16.07.2019 15:00:00 18,2 9,5 - - 16 9 WSW 1015,2 45 42 0,0
16.07.2019 14:00:00 19,2 11,6 - - 21 11 SW 1015,3 30 18 0,0
16.07.2019 13:00:00 17,6 12,0 - - 18 10 WSW 1015,8 30 6 0,0
16.07.2019 12:00:00 17,1 12,3 - - 15 8 WSW 1015,9 30 0 0,0
16.07.2019 11:00:00 16,6 11,1 - - 5 3 SW 1015,9 50 0 0,0
16.07.2019 10:00:00 16,6 10,8 14,5 12,7 11 6 WSW 1016,2 50 0 0,0
16.07.2019 09:00:00 15,7 12,0 - - 5 3 E 1016,5 45 6 0,0
16.07.2019 08:00:00 13,0 11,8 - - 5 3 E 1016,8 45 36 0,0
16.07.2019 07:00:00 11,1 10,9 - - 4 2 W 1017,3 30 12 0,0
16.07.2019 06:00:00 9,9 9,6 - - 2 1 SE 1017,9 15 0 0,0
16.07.2019 05:00:00 9,8 9,6 - - 4 2 E 1018,0 11 0 0,0
16.07.2019 04:00:00 9,3 9,0 - - 2 1 E 1018,3 12 0 0,0
16.07.2019 03:00:00 8,7 8,3 - - 2 1 E 1019,0 9 0 0,0
16.07.2019 02:00:00 8,3 7,7 - - 0 0 N 1019,3 22 0 0,0
16.07.2019 01:00:00 9,3 8,3 - - 2 1 WNW 1019,5 17 - 0,0
16.07.2019 00:00:00 10,6 9,3 - - 4 2 W 1019,4 45 0 0,0
15.07.2019 23:00:00 12,1 9,6 - - 4 2 W 1019,5 50 0 0,0
15.07.2019 22:00:00 14,9 10,5 - - 4 2 WSW 1019,4 50 0 0,0
15.07.2019 21:00:00 15,4 10,5 - - 16 9 WNW 1019,4 45 0 0,0
15.07.2019 20:00:00 15,7 11,0 - - 15 8 WNW 1019,4 50 0 0,0
15.07.2019 19:00:00 16,6 10,7 - - 18 10 WNW 1019,3 50 0 0,0
15.07.2019 18:00:00 17,9 11,5 - - 18 10 WNW 1019,0 50 0 0,0
15.07.2019 17:00:00 19,0 11,9 - - 22 12 WNW 1018,9 45 6 0,0
15.07.2019 16:00:00 20,7 12,0 - - 11 6 WNW 1019,1 45 0 0,0
15.07.2019 15:00:00 20,8 11,8 - - 8 4 WNW 1019,4 29 6 0,0
15.07.2019 14:00:00 20,9 11,1 - - 5 3 NW 1019,8 40 12 0,0
15.07.2019 13:00:00 21,4 11,8 - - 9 5 WNW 1020,0 50 48 0,0
15.07.2019 12:00:00 19,9 12,0 - - 8 4 SE 1020,4 24 60 0,0
15.07.2019 11:00:00 17,3 12,1 - - 9 5 E 1021,2 45 60 0,0
15.07.2019 10:00:00 14,3 12,1 14,2 12,5 5 3 ESE 1022,1 35 48 0,0
15.07.2019 09:00:00 11,1 10,8 - - 8 4 E 1023,0 26 0 0,0
15.07.2019 08:00:00 9,8 9,6 - - 5 3 ESE 1023,3 10 0 0,0
15.07.2019 07:00:00 9,3 9,1 - - 2 1 ENE 1023,6 0,8 0 0,0
15.07.2019 06:00:00 8,0 7,8 - - 2 1 ESE 1023,9 0,4 0 0,0
15.07.2019 05:00:00 4,9 4,4 - - 2 1 S 1024,6 11 0 0,0
15.07.2019 04:00:00 5,7 5,3 - - 0 0 N 1024,9 15 0 0,0
15.07.2019 03:00:00 5,8 5,2 - - 0 0 N 1025,3 17 0 0,0
15.07.2019 02:00:00 7,2 6,6 - - 2 1 SE 1025,2 9 0 0,0
15.07.2019 01:00:00 7,9 7,3 - - 2 1 WSW 1025,2 29 - 0,0
15.07.2019 00:00:00 8,1 7,1 - - 4 2 W 1025,3 40 0 0,0
14.07.2019 23:00:00 10,4 8,8 - - 11 6 WNW 1025,0 40 0 0,0
14.07.2019 22:00:00 12,0 9,3 - - 13 7 WNW 1024,8 45 30 0,0
14.07.2019 21:00:00 14,3 9,9 - - 21 11 WNW 1024,6 50 60 0,0
14.07.2019 20:00:00 15,8 10,0 - - 22 12 WNW 1024,5 45 60 0,0
14.07.2019 19:00:00 17,4 10,1 - - 22 12 WNW 1024,3 50 60 0,0
14.07.2019 18:00:00 17,9 9,9 - - 24 13 W 1024,5 30 60 0,0
14.07.2019 17:00:00 18,5 9,9 - - 18 10 W 1024,6 29 60 0,0
14.07.2019 16:00:00 18,3 9,6 - - 11 6 WNW 1025,0 35 60 0,0
14.07.2019 15:00:00 17,7 9,8 - - 13 7 W 1025,3 50 60 0,0
14.07.2019 14:00:00 16,5 8,5 - - 9 5 WNW 1025,7 50 60 0,0
14.07.2019 13:00:00 15,8 8,4 - - 13 7 W 1025,9 30 36 0,0
14.07.2019 12:00:00 14,1 7,5 - - 11 6 WNW 1026,1 30 36 0,0
14.07.2019 11:00:00 12,6 7,1 - - 15 8 W 1026,5 50 12 0,0
14.07.2019 10:00:00 12,2 6,9 13,9 12,2 13 7 W 1026,6 35 0 0,0
14.07.2019 09:00:00 11,4 6,9 - - 9 5 WNW 1026,7 35 0 0,0
14.07.2019 08:00:00 10,9 8,1 - - 5 3 W 1026,7 40 0 0,0
14.07.2019 07:00:00 10,4 9,2 - - 5 3 W 1026,6 35 0 0,0
14.07.2019 06:00:00 10,0 9,1 - - 8 4 W 1026,5 35 0 0,0
14.07.2019 05:00:00 9,9 9,1 - - 11 6 W 1026,7 28 0 0,0
14.07.2019 04:00:00 9,9 9,2 - - 11 6 W 1026,7 18 0 0,0
14.07.2019 03:00:00 10,2 9,5 - - 11 6 W 1027,0 11 0 0,0
14.07.2019 02:00:00 10,4 9,4 - - 8 4 W 1026,9 17 0 0,0
14.07.2019 01:00:00 10,6 9,5 - - 9 5 W 1026,9 15 - 0,0
14.07.2019 00:00:00 11,0 9,0 - - 11 6 W 1026,7 29 0 0,0
13.07.2019 23:00:00 11,2 9,1 - - 13 7 W 1026,6 45 0 0,0
13.07.2019 22:00:00 11,5 8,7 - - 11 6 WNW 1026,3 45 0 0,0
13.07.2019 21:00:00 12,1 8,6 - - 15 8 NW 1026,0 45 0 0,0
13.07.2019 20:00:00 12,4 9,1 - - 16 9 NNW 1025,8 45 0 0,0
13.07.2019 19:00:00 12,7 9,8 - - 16 9 NNW 1025,6 40 0 0,0
13.07.2019 18:00:00 13,2 9,6 - - 21 11 NW 1025,3 26 0 0,0
13.07.2019 17:00:00 14,4 10,2 - - 22 12 NW 1024,9 28 0 0,0
13.07.2019 16:00:00 13,4 10,8 - - 21 11 WNW 1024,9 30 0 0,0
13.07.2019 15:00:00 12,8 11,3 - - 21 11 W 1024,7 3,6 6 0,2
13.07.2019 14:00:00 14,6 10,6 - - 22 12 NW 1024,1 35 6 0,0
13.07.2019 13:00:00 12,5 11,0 - - 16 9 W 1024,2 35 0 0,2
13.07.2019 12:00:00 12,5 10,1 - - 18 10 W 1023,9 50 0 0,0
13.07.2019 11:00:00 12,9 10,6 - - 22 12 NW 1023,8 4,9 6 0,0
13.07.2019 10:00:00 12,5 11,4 14,0 12,2 21 11 W 1023,6 9 0 0,0
13.07.2019 09:00:00 12,1 10,6 - - 21 11 NW 1023,4 35 0 0,0
13.07.2019 08:00:00 12,1 11,4 - - 15 8 W 1022,7 18 0 0,2
13.07.2019 07:00:00 12,1 11,5 - - 13 7 W 1022,3 15 0 0,0
13.07.2019 06:00:00 12,1 11,5 - - 11 6 WNW 1022,1 16 0 0,0
13.07.2019 05:00:00 12,1 11,5 - - 13 7 W 1022,0 6 0 0,0
13.07.2019 04:00:00 12,1 11,6 - - 11 6 W 1021,8 17 0 0,0
13.07.2019 03:00:00 12,4 11,9 - - 15 8 W 1021,9 11 0 0,4
13.07.2019 02:00:00 12,5 12,1 - - 15 8 W 1021,5 24 0 0,0
13.07.2019 01:00:00 12,6 12,2 - - 13 7 W 1021,4 5 - 0,4
13.07.2019 00:00:00 12,3 11,8 - - 9 5 W 1021,3 5 0 0,0
12.07.2019 23:00:00 12,8 12,2 - - 8 4 W 1020,8 9 0 0,0
12.07.2019 22:00:00 12,9 12,2 - - 13 7 W 1020,5 18 0 0,0
12.07.2019 21:00:00 13,0 12,3 - - 16 9 W 1020,0 20 0 0,0
12.07.2019 20:00:00 14,3 12,1 - - 18 10 W 1019,4 30 0 0,0
12.07.2019 19:00:00 14,6 12,4 - - 21 11 W 1018,8 50 0 0,0
12.07.2019 18:00:00 16,0 13,1 - - 21 11 W 1018,2 45 0 0,0
12.07.2019 17:00:00 16,1 13,2 - - 16 9 NW 1017,9 45 0 0,0
12.07.2019 16:00:00 15,6 13,6 - - 16 9 W 1017,4 45 0 0,0
12.07.2019 15:00:00 16,7 13,2 - - 15 8 WNW 1016,7 45 0 0,0
12.07.2019 14:00:00 15,8 13,2 - - 18 10 W 1016,5 15 0 0,0
12.07.2019 13:00:00 15,4 13,0 - - 18 10 WNW 1016,2 45 0 0,0
12.07.2019 12:00:00 14,7 13,7 - - 15 8 W 1015,9 16 0 0,2
12.07.2019 11:00:00 13,8 12,4 - - 15 8 W 1015,6 5 0 0,0
12.07.2019 10:00:00 13,9 12,4 13,7 12,0 15 8 W 1015,1 10 0 0,0
12.07.2019 09:00:00 14,1 12,1 - - 16 9 WNW 1014,5 40 0 0,0
12.07.2019 08:00:00 13,3 12,3 - - 13 7 W 1014,0 25 0 0,0
12.07.2019 07:00:00 12,9 12,2 - - 9 5 W 1013,4 20 0 0,0
12.07.2019 06:00:00 12,4 12,0 - - 11 6 W 1013,2 13 0 0,0

tt = temperature
td = dewpoint
tt -20cm = temperature -20cm
tt -100cm = temperature -100cm
ff = wind speed
dd = wind direction
ppp = reduced air pressure
vv = visibility
sd = sunshine duration
rr = precipitation

Next stations